Weather History for KLWC - July, 2013

Change the Weather History Date:

Wednesday, July 3, 2013

  Actual Average Record
Temperature  
Mean Temperature 72 °F 77 °F  
Max Temperature 88 °F 88 °F 102 °F (2012)
Min Temperature 55 °F 67 °F 49 °F (2014)
Degree Days  
Heating Degree Days 0 0  
Month to date heating degree days 0 0  
Since 1 June heating degree days 13 8  
Since 1 July heating degree days 0 0  
Cooling Degree Days 7 12  
Month to date cooling degree days 18 36  
Year to date cooling degree days 457 430  
Since 1 June cooling degree days 330 311  
Growing Degree Days 20 (Base 50)    
Moisture  
Dew Point 55 °F    
Average Humidity 61    
Maximum Humidity 93    
Minimum Humidity 29    
Precipitation  
Precipitation 0.11 in 0.17 in 1.86 in (2015)
Month to date precipitation 0.11 0.53  
Year to date precipitation 15.77 19.88  
Sea Level Pressure  
Sea Level Pressure 30.04 in    
Wind  
Wind Speed 5 mph (NW)    
Max Wind Speed 18 mph    
Max Gust Speed 25 mph    
Visibility 9 miles    
Events Rain , Thunderstorm    
T = Trace of Precipitation, MM = Missing Value Source: NWS Daily Summary

Daily Weather History Graph

Daily Weather History Graph

Search for Another Location

Airport or City:

Trip Planner

Search our weather history database for the weather conditions in past years. The results will help you decide how hot, cold, wet, or windy it might be!

Date:

Astronomy

Jul. 03, 2013 Rise Set
Actual Time 6:00 AM CDT 8:50 PM CDT
Civil Twilight 5:28 AM CDT 9:21 PM CDT
Nautical Twilight 4:47 AM CDT 10:02 PM CDT
Astronomical Twilight 4:02 AM CDT 10:47 PM CDT
Moon 2:37 AM CDT (7/3) 5:02 PM CDT (7/3)
Length of Visible Light 15h 53m
Length of Day
14h 50m
Waning Crescent, 18% of the Moon is Illuminated
Jul 3
Waning Crescent
Jul 8
New
Jul 15
First Quarter
Jul 22
Full
Jul 29
Last Quarter

Hourly Weather History & Observations

Time (CDT) Temp. Heat Index Dew Point Humidity Pressure Visibility Wind Dir Wind Speed Gust Speed Precip Events Conditions
12:52 AM 61.0 °F - 57.0 °F 87% 30.06 in 10.0 mi Calm Calm - N/A   Clear
1:52 AM 61.0 °F - 55.9 °F 83% 30.06 in 10.0 mi Calm Calm - N/A   Clear
2:52 AM 57.9 °F - 55.0 °F 90% 30.06 in 9.0 mi Calm Calm - N/A   Clear
3:52 AM 57.0 °F - 54.0 °F 89% 30.05 in 9.0 mi NNW 3.5 mph - N/A   Clear
4:52 AM 57.0 °F - 54.0 °F 89% 30.05 in 7.0 mi Calm Calm - N/A   Clear
5:52 AM 55.9 °F - 54.0 °F 93% 30.05 in 7.0 mi Calm Calm - N/A   Clear
6:41 AM 55.4 °F - 53.6 °F 94% 30.08 in 6.0 mi Calm Calm - N/A   Partly Cloudy
6:52 AM 57.0 °F - 54.0 °F 89% 30.06 in 7.0 mi Calm Calm - N/A   Partly Cloudy
7:52 AM 64.9 °F - 59.0 °F 81% 30.07 in 7.0 mi Calm Calm - N/A   Clear
8:52 AM 73.0 °F - 57.9 °F 59% 30.08 in 10.0 mi WNW 4.6 mph - N/A   Clear
9:52 AM 77.0 °F - 55.9 °F 48% 30.08 in 10.0 mi NW 8.1 mph - N/A   Clear
10:52 AM 81.0 °F 80.7 °F 55.0 °F 41% 30.07 in 10.0 mi WNW 8.1 mph - N/A   Clear
11:52 AM 82.9 °F 81.8 °F 53.1 °F 36% 30.06 in 10.0 mi West 10.4 mph - N/A   Clear
12:52 PM 84.9 °F - 52.0 °F 32% 30.05 in 10.0 mi West 6.9 mph - N/A   Clear
1:52 PM 84.9 °F 83.2 °F 53.1 °F 33% 30.03 in 10.0 mi West 9.2 mph - N/A   Clear
2:52 PM 86.0 °F - 50.0 °F 29% 30.00 in 10.0 mi Variable 3.5 mph - N/A   Clear
3:52 PM 86.0 °F - 50.0 °F 29% 29.99 in 10.0 mi Calm Calm - N/A   Partly Cloudy
4:52 PM 86.0 °F - 52.0 °F 31% 29.98 in 10.0 mi NW 8.1 mph - N/A   Mostly Cloudy
5:52 PM 77.0 °F - 55.9 °F 48% 30.00 in 10.0 mi WSW 10.4 mph - 0.00 in Rain , Thunderstorm Light Thunderstorms and Rain
6:10 PM 69.8 °F - 55.4 °F 60% 30.02 in 2.5 mi NE 5.8 mph - 0.10 in Rain , Thunderstorm Thunderstorms and Rain
6:19 PM 69.8 °F - 57.2 °F 64% 30.01 in 6.0 mi ENE 9.2 mph - 0.11 in Rain , Thunderstorm Light Thunderstorms and Rain
6:39 PM 69.8 °F - 57.2 °F 64% 30.01 in 10.0 mi East 9.2 mph - 0.11 in   Mostly Cloudy
6:52 PM 69.1 °F - 59.0 °F 70% 30.03 in 10.0 mi Variable 5.8 mph - 0.11 in   Scattered Clouds
7:52 PM 69.1 °F - 60.1 °F 73% 30.02 in 10.0 mi SE 9.2 mph - 0.00 in   Clear
8:52 PM 66.9 °F - 59.0 °F 76% 30.01 in 10.0 mi SE 5.8 mph - N/A   Partly Cloudy
9:52 PM 63.0 °F - 59.0 °F 87% 30.01 in 10.0 mi East 5.8 mph - N/A   Clear
10:52 PM 64.0 °F - 55.9 °F 75% 30.03 in 10.0 mi Calm Calm - N/A   Clear
11:52 PM 60.1 °F - 55.9 °F 86% 30.02 in 10.0 mi East 3.5 mph - N/A   Clear